Location: Unspecified
(33.6682°S, 0.0000°E)
Time: 14:49:33
(UTC+00:00)

Courier 1B - Pass Details

Date: 21 June 2019
Orbit: 962 x 1209 km, 28.3° (Epoch: 24 August)

Event Time Altitude Azimuth Distance (km) Brightness Sun altitude
Rises 05:53:40 0° 310° (NW) 3,939 10.4 -14.3°
Reaches altitude 10° 05:56:48 10° 319° (NW) 2,943 9.8 -13.7°
Maximum altitude 06:03:03 33° 19° (NNE) 1,702 9.2 -12.5°
Drops below altitude 10° 06:09:00 10° 80° (E) 2,797 11.4 -11.3°
Sets 06:11:54 0° 89° (E) 3,718 12.0 -10.8°
